Вернуться в каталог

CZ-6A DEB

АктивенPO
NORAD 54418·DEBRIS·🇨🇳 China

Запущен Nov 11, 2022 с Taiyuan Satellite Launch Center

Loading…

Ближайшие Пролёты (ближайшие 24 часа)

TLE

СвежийSource: Space-Track

Эпоха: Sep 14, 2026, 13:22 UTC

1 54418U 22151ES  26257.55723060  .00000802  00000-0  76727-3 0  9995
2 54418  98.8798 169.7635 0240233 317.1682  41.0969 13.71169600191736

Отслеживайте CZ-6A DEB в реальном времени с AllMySat

Download on the App Store